Flag for Italy Weather past 2 weeks in Trieste, Italy

Now
74 °F

Overcast.


Feels Like: 76 °F
Forecast: 68 / 79 °F
Wind: 12 mph from Northeast

Location: Trieste

Current Time: Jul 30, 2014 at 3:36:05 PM

Latest Report: Jul 30, 2014 at 3:00 PM


Visibility: 6 mi

Pressure: 29.66 "Hg

Humidity: 63%

Dew point: 60 °F

Location of TriesteLocation

Historic Weather in Trieste — Graph

°F

Trieste temperature yesterday

Maximum temperature yesterday: 76 °F (at 9:00 AM)
Minimum temperature yesterday: 67 °F (at 8:00 PM)
Average temperature yesterday: 70 °F

Past Weeks' High & Low Weather Summary

 TemperatureHumidityPressure
High88 °F (Jul 17, 12:00 PM)97% (Jul 29, 1:00 PM)30.06 "Hg (Jul 29, 1:00 PM)
Low63 °F (Jul 22, 6:00 AM)38% (Jul 15, 3:00 PM)29.59 "Hg (Jul 30, 7:00 AM)
Average75 °F70%29.89 "Hg
* Reported Jul 15 2:00 PM — Jul 30 2:00 PM, Trieste, Weather by CustomWeather, © 2014

Note: Actual official high and low records may vary slightly from our data, if they occured in-between our weather recording intervals... More about our weather records

Advertising

Trieste weather history for previous 24 hours

 ConditionsComfort  
Time TempWeatherWind HumidityBarometerVisibility
2:00 PM
Jul 30
73 °FOvercast.10 mph67%29.66 "Hg6 mi
1:00 PM73 °FOvercast.7 mph68%29.66 "Hg6 mi
12:00 PM72 °FOvercast.9 mph70%29.64 "Hg6 mi
11:00 AM70 °FOvercast.7 mph77%29.64 "Hg6 mi
10:00 AM69 °FOvercast.N/A84%29.61 "Hg6 mi
9:00 AM67 °FLight rain. Overcast.8 mph88%29.60 "Hg2 mi
8:00 AM67 °FThundershowers. Overcast.8 mph89%29.62 "Hg2 mi
7:00 AM67 °FLight rain. Overcast.13 mph90%29.59 "Hg2 mi
6:00 AM67 °FLight rain. Overcast.10 mph84%29.61 "Hg6 mi
5:00 AM69 °FPassing clouds.10 mph75%29.64 "Hg6 mi
4:00 AM68 °FPassing clouds.6 mph83%29.67 "Hg6 mi
3:00 AM67 °FPassing clouds.10 mph86%29.69 "Hg6 mi
2:00 AM67 °FPassing clouds.1 mph87%29.73 "Hg6 mi
1:00 AM67 °FPassing clouds.1 mph93%29.73 "Hg6 mi
12:00 AM68 °FPassing clouds.No wind90%29.74 "Hg6 mi
11:00 PM
Jul 29
68 °FPassing clouds.2 mph88%29.75 "Hg6 mi
10:00 PM68 °FPassing clouds.2 mph87%29.75 "Hg6 mi
9:00 PM68 °FLight rain. Overcast.3 mph92%29.76 "Hg6 mi
8:00 PM67 °FOvercast.5 mph93%29.76 "Hg6 mi
7:00 PM68 °FRain. Overcast.2 mph95%29.77 "Hg2 mi
6:00 PM68 °FRain. Overcast.5 mph95%29.78 "Hg2 mi
5:00 PM68 °FRain. Overcast.1 mph90%29.79 "Hg2 mi
4:00 PM68 °FRain. Overcast.3 mph96%29.79 "Hg2 mi
3:00 PM69 °FRain. Overcast.1 mph92%29.79 "Hg6 mi
Weather by CustomWeather, © 2014

See weather overviewHow to use our weather pages